Location: Bondula
(6.3703°N, 10.6756°W)
Time: 05:33:37
(UTC+00:00)

ARIANE 5 DEB (SYLDA) - Pass Details

Date: 22 October 2019
Orbit: 205 x 1431 km, 3.2° (Epoch: 11 November)

Event Time Altitude Azimuth Distance (km) Brightness Sun altitude
Exits shadow 04:32:13 55° 194° (SSW) 1,137 4.2 -29.4°
Maximum altitude 04:32:26 56° 187° (S) 1,123 4.2 -29.3°
Drops below altitude 10° 04:37:42 10° 109° (ESE) 2,197 6.8 -28.0°
Sets 04:39:43 0° 104° (ESE) 2,912 7.8 -27.5°
